| time (UTC) | temp F | wind direction | speed MPH | gust MPH | rain 1hr in | rain 24hr in | rain mn in | humidity % | barometer mb |
| 20260906043003 | 72 | 170 | 2.0 | 4.0 | 0.00 | 0.00 | 0.00 | 50 | 1013.0 |
| 20260906041600 | 73 | 171 | 3.0 | 6.0 | 0.00 | 0.00 | 0.00 | 51 | 1012.8 |
| 20260906040057 | 73 | 176 | 1.0 | 3.0 | 0.00 | 0.00 | 0.00 | 51 | 1012.8 |
| 20260906034600 | 73 | 169 | 1.0 | 4.0 | 0.00 | 0.00 | 0.00 | 54 | 1012.8 |
| 20260906033056 | 74 | 169 | 0.0 | 4.0 | 0.00 | 0.00 | 0.00 | 54 | 1012.8 |
| 20260906031617 | 74 | 171 | 0.0 | 4.0 | 0.00 | 0.00 | 0.00 | 53 | 1012.7 |
| 20260906030053 | 74 | 180 | 2.0 | 5.0 | 0.00 | 0.00 | 0.00 | 53 | 1012.7 |
| 20260906024556 | 75 | 178 | 0.0 | 5.0 | 0.00 | 0.00 | 0.00 | 53 | 1012.7 |
| 20260906023107 | 75 | 195 | 2.0 | 6.0 | 0.00 | 0.00 | 0.00 | 52 | 1012.5 |
| 20260906021554 | 75 | 205 | 4.0 | 7.0 | 0.00 | 0.00 | 0.00 | 54 | 1012.5 |
| 20260906020057 | 74 | 166 | 3.0 | 7.0 | 0.00 | 0.00 | 0.00 | 55 | 1012.5 |
| 20260906014551 | 74 | 169 | 0.0 | 3.0 | 0.00 | 0.00 | 0.00 | 58 | 1012.0 |
| 20260906013051 | 74 | 167 | 0.0 | 3.0 | 0.00 | 0.00 | 0.00 | 61 | 1011.8 |
| 20260906011553 | 74 | 170 | 0.0 | 0.0 | 0.00 | 0.00 | 0.00 | 61 | 1011.4 |
| 20260906010050 | 74 | 170 | 0.0 | 0.0 | 0.00 | 0.00 | 0.00 | 61 | 1011.3 |
| 20260906004556 | 74 | 162 | 0.0 | 0.0 | 0.00 | 0.00 | 0.00 | 63 | 1011.3 |
| 20260906003052 | 75 | 162 | 0.0 | 0.0 | 0.00 | 0.00 | 0.00 | 63 | 1010.7 |
| 20260906001549 | 76 | 162 | 0.0 | 0.0 | 0.00 | 0.00 | 0.00 | 62 | 1010.8 |
| 20260906000058 | 76 | 162 | 0.0 | 0.0 | 0.00 | 0.00 | 0.00 | 61 | 1010.7 |
| 20260905234548 | 77 | 162 | 0.0 | 2.0 | 0.00 | 0.00 | 0.00 | 62 | 1010.8 |
| 20260905233051 | 77 | 167 | 0.0 | 4.0 | 0.00 | 0.00 | 0.00 | 61 | 1010.6 |
| 20260905231549 | 78 | 166 | 1.0 | 5.0 | 0.00 | 0.00 | 0.00 | 60 | 1010.9 |
| 20260905230044 | 80 | 172 | 3.0 | 7.0 | 0.00 | 0.00 | 0.00 | 57 | 1011.1 |
| 20260905224544 | 83 | 175 | 4.0 | 10.0 | 0.00 | 0.00 | 0.00 | 55 | 1011.1 |
| 20260905223043 | 90 | 160 | 6.0 | 11.0 | 0.00 | 0.00 | 0.00 | 49 | 1010.5 |
| 20260905221559 | 91 | 155 | 0.0 | 4.0 | 0.00 | 0.00 | 0.00 | 48 | 1009.8 |
| 20260905220042 | 92 | 149 | 0.0 | 0.0 | 0.00 | 0.00 | 0.00 | 49 | 1010.1 |
| 20260905214541 | 90 | 150 | 0.0 | 1.0 | 0.00 | 0.00 | 0.00 | 51 | 1010.1 |
| 20260905213040 | 89 | 150 | 0.0 | 2.0 | 0.00 | 0.00 | 0.00 | 50 | 1010.1 |
| 20260905211538 | 90 | 145 | 0.0 | 2.0 | 0.00 | 0.00 | 0.00 | 48 | 1009.9 |
| 20260905210036 | 91 | 134 | 0.0 | 2.0 | 0.00 | 0.00 | 0.00 | 48 | 1010.2 |
| 20260905204540 | 92 | 130 | 0.0 | 1.0 | 0.00 | 0.00 | 0.00 | 46 | 1010.4 |
| 20260905203034 | 93 | 133 | 1.0 | 5.0 | 0.00 | 0.00 | 0.00 | 44 | 1010.5 |
| 20260905201531 | 94 | 105 | 3.0 | 6.0 | 0.00 | 0.00 | 0.00 | 42 | 1010.6 |
| 20260905200031 | 93 | 123 | 0.0 | 5.0 | 0.00 | 0.00 | 0.00 | 44 | 1010.6 |
| 20260905194526 | 93 | 136 | 1.0 | 3.0 | 0.00 | 0.00 | 0.00 | 43 | 1010.8 |
| 20260905193024 | 93 | 153 | 0.0 | 6.0 | 0.00 | 0.00 | 0.00 | 43 | 1011.0 |
| 20260905191521 | 91 | 108 | 2.0 | 9.0 | 0.00 | 0.00 | 0.00 | 42 | 1011.1 |
| 20260905190028 | 92 | 129 | 0.0 | 8.0 | 0.00 | 0.00 | 0.00 | 44 | 1011.4 |
| 20260905184517 | 91 | 108 | 1.0 | 4.0 | 0.00 | 0.01 | 0.00 | 45 | 1011.5 |
| 20260905183016 | 89 | 117 | 2.0 | 7.0 | 0.00 | 0.01 | 0.00 | 44 | 1011.9 |
| 20260905181513 | 89 | 119 | 1.0 | 6.0 | 0.00 | 0.01 | 0.00 | 45 | 1012.0 |
| 20260905180012 | 89 | 105 | 3.0 | 8.0 | 0.00 | 0.01 | 0.00 | 44 | 1012.0 |
| 20260905174512 | 89 | 115 | 2.0 | 6.0 | 0.00 | 0.01 | 0.00 | 45 | 1012.1 |
| 20260905173008 | 88 | 92 | 1.0 | 6.0 | 0.00 | 0.01 | 0.00 | 46 | 1012.3 |
| 20260905171504 | 87 | 38 | 2.0 | 6.0 | 0.00 | 0.01 | 0.00 | 47 | 1012.5 |
| 20260905170001 | 86 | 104 | 1.0 | 5.0 | 0.00 | 0.01 | 0.00 | 46 | 1012.7 |
| 20260905164603 | 85 | 99 | 1.0 | 5.0 | 0.00 | 0.01 | 0.00 | 46 | 1013.0 |
| 20260905163055 | 83 | 82 | 0.0 | 3.0 | 0.00 | 0.01 | 0.00 | 51 | 1013.2 |
| 20260905161554 | 81 | 256 | 0.0 | 1.0 | 0.00 | 0.01 | 0.00 | 50 | 1013.5 |
| 20260905160058 | 83 | 267 | 0.0 | 3.0 | 0.00 | 0.01 | 0.00 | 48 | 1013.5 |
| 20260905154555 | 83 | 106 | 2.0 | 7.0 | 0.00 | 0.01 | 0.00 | 47 | 1013.4 |
| 20260905153051 | 83 | 117 | 2.0 | 6.0 | 0.00 | 0.01 | 0.00 | 47 | 1013.2 |
| 20260905151548 | 81 | 241 | 1.0 | 4.0 | 0.00 | 0.01 | 0.00 | 50 | 1013.3 |
| 20260905150045 | 80 | 217 | 1.0 | 5.0 | 0.00 | 0.01 | 0.00 | 51 | 1013.2 |
| 20260905144545 | 80 | 86 | 3.0 | 9.0 | 0.00 | 0.01 | 0.00 | 49 | 1013.1 |
| 20260905143041 | 79 | 243 | 2.0 | 6.0 | 0.00 | 0.01 | 0.00 | 53 | 1013.4 |
| 20260905141538 | 77 | 90 | 1.0 | 6.0 | 0.00 | 0.01 | 0.00 | 54 | 1013.5 |
| 20260905140036 | 76 | 336 | 2.0 | 7.0 | 0.00 | 0.01 | 0.00 | 55 | 1013.5 |
| 20260905134533 | 76 | 193 | 0.0 | 3.0 | 0.00 | 0.01 | 0.00 | 54 | 1013.6 |
| 20260905133032 | 73 | 269 | 3.0 | 7.0 | 0.00 | 0.01 | 0.00 | 56 | 1013.7 |
| 20260905131532 | 74 | 278 | 1.0 | 5.0 | 0.00 | 0.01 | 0.00 | 55 | 1014.0 |
| 20260905130030 | 73 | 274 | 2.0 | 7.0 | 0.00 | 0.01 | 0.00 | 55 | 1013.7 |
| 20260905124528 | 72 | 259 | 2.0 | 6.0 | 0.00 | 0.01 | 0.00 | 55 | 1013.5 |
| 20260905123028 | 71 | 286 | 3.0 | 7.0 | 0.00 | 0.01 | 0.00 | 55 | 1013.5 |
| 20260905121527 | 70 | 264 | 2.0 | 5.0 | 0.00 | 0.01 | 0.00 | 56 | 1013.4 |
| 20260905120037 | 70 | 263 | 1.0 | 5.0 | 0.00 | 0.01 | 0.00 | 56 | 1013.5 |
| 20260905114526 | 70 | 257 | 1.0 | 6.0 | 0.00 | 0.01 | 0.00 | 55 | 1013.6 |
| 20260905113028 | 70 | 249 | 3.0 | 6.0 | 0.00 | 0.01 | 0.00 | 55 | 1013.3 |
| 20260905111539 | 70 | 232 | 1.0 | 5.0 | 0.00 | 0.01 | 0.00 | 55 | 1013.3 |
| 20260905110023 | 71 | 291 | 1.0 | 7.0 | 0.00 | 0.01 | 0.00 | 55 | 1013.5 |
| 20260905104518 | 71 | 259 | 3.0 | 7.0 | 0.00 | 0.01 | 0.00 | 54 | 1013.4 |
| 20260905103023 | 72 | 195 | 1.0 | 4.0 | 0.00 | 0.01 | 0.00 | 53 | 1013.5 |
| 20260905101513 | 72 | 159 | 1.0 | 6.0 | 0.00 | 0.01 | 0.00 | 49 | 1013.2 |
| 20260905100011 | 73 | 107 | 0.0 | 0.0 | 0.00 | 0.01 | 0.00 | 56 | 1012.1 |
| 20260905094510 | 73 | 107 | 0.0 | 0.0 | 0.00 | 0.00 | 0.00 | 55 | 1012.1 |
| 20260905093010 | 73 | 107 | 0.0 | 0.0 | 0.00 | 0.01 | 0.00 | 54 | 1012.1 |
| 20260905091508 | 73 | 107 | 0.0 | 0.0 | 0.00 | 0.01 | 0.00 | 53 | 1012.0 |
| 20260905090008 | 73 | 107 | 0.0 | 1.0 | 0.00 | 0.01 | 0.00 | 51 | 1012.0 |
| 20260905084504 | 73 | 107 | 0.0 | 0.0 | 0.00 | 0.01 | 0.00 | 50 | 1012.0 |
| 20260905083103 | 73 | 107 | 0.0 | 0.0 | 0.00 | 0.01 | 0.00 | 50 | 1012.0 |
| 20260905081502 | 74 | 107 | 0.0 | 0.0 | 0.00 | 0.01 | 0.00 | 50 | 1011.9 |
| 20260905080001 | 74 | 107 | 0.0 | 0.0 | 0.00 | 0.01 | 0.00 | 49 | 1011.8 |
| 20260905074604 | 75 | 107 | 0.0 | 1.0 | 0.00 | 0.01 | 0.00 | 49 | 1011.5 |
| 20260905073103 | 75 | 107 | 0.0 | 1.0 | 0.00 | 0.01 | 0.00 | 50 | 1011.0 |
| 20260905071558 | 75 | 124 | 0.0 | 1.0 | 0.00 | 0.01 | 0.00 | 49 | 1011.2 |
| 20260905070101 | 75 | 151 | 0.0 | 1.0 | 0.00 | 0.01 | 0.00 | 49 | 1011.2 |
| 20260905064611 | 75 | 271 | 0.0 | 2.0 | 0.00 | 0.01 | 0.00 | 49 | 1011.5 |
| 20260905063052 | 76 | 115 | 0.0 | 2.0 | 0.00 | 0.01 | 0.00 | 49 | 1011.7 |
| 20260905061550 | 75 | 154 | 0.0 | 1.0 | 0.00 | 0.01 | 0.00 | 48 | 1012.0 |
| 20260905060048 | 75 | 134 | 0.0 | 2.0 | 0.00 | 0.01 | 0.00 | 48 | 1012.1 |
| 20260905054550 | 75 | 174 | 0.0 | 0.0 | 0.00 | 0.01 | 0.00 | 48 | 1012.1 |
| 20260905053044 | 75 | 174 | 0.0 | 0.0 | 0.00 | 0.01 | 0.00 | 48 | 1012.4 |
| 20260905051547 | 74 | 174 | 0.0 | 0.0 | 0.00 | 0.01 | 0.00 | 49 | 1012.5 |
| 20260905050043 | 74 | 174 | 0.0 | 0.0 | 0.00 | 0.01 | 0.00 | 50 | 1012.5 |
| 20260905044540 | 73 | 174 | 0.0 | 0.0 | 0.00 | 0.01 | 0.00 | 50 | 1012.6 |